,,Stat6,,Stat2,,Stat8,,Stat9,,Stat10,,Wind1,,Wind1,
time,status,PA1M_AVG,status,PR1M_SUM,status,RH1M_AVG,status,SR1M_AVG,status,TA1M_AVG,status,W1dAve1m,status,W1sAve1m,
2006-02-07, 00:00:00,VALID,918.406,VALID,0,VALID,90.8561,VALID,0.101885,VALID,20.5881,VALID,113,VALID,1.45673,
2006-02-07, 00:01:00,VALID,918.395,VALID,0,VALID,90.8383,VALID,0.0849042,VALID,20.601,VALID,100,VALID,1.23183,
2006-02-07, 00:02:00,VALID,918.401,VALID,0,VALID,90.9007,VALID,0.0509425,VALID,20.5781,VALID,102,VALID,1.26344,
2006-02-07, 00:03:00,VALID,918.408,VALID,0,VALID,91.0825,VALID,0.0849042,VALID,20.5523,VALID,98,VALID,1.30043,
2006-02-07, 00:04:00,VALID,918.414,VALID,0,VALID,91.2694,VALID,0.0679233,VALID,20.5232,VALID,100,VALID,1.28852,
2006-02-07, 00:05:00,VALID,918.43,VALID,0,VALID,91.4538,VALID,0.118866,VALID,20.4973,VALID,101,VALID,0.964472,
2006-02-07, 00:06:00,VALID,918.447,VALID,0,VALID,91.5924,VALID,0.0679233,VALID,20.4488,VALID,98,VALID,1.02398,
2006-02-07, 00:07:00,VALID,918.463,VALID,0,VALID,91.9268,VALID,0.0169808,VALID,20.4213,VALID,109,VALID,1.55041,
2006-02-07, 00:08:00,VALID,918.458,VALID,0,VALID,92.377,VALID,0.0169808,VALID,20.3601,VALID,121,VALID,1.59316,
2006-02-07, 00:09:00,VALID,918.466,VALID,0,VALID,92.7737,VALID,-0.0169808,VALID,20.2887,VALID,120,VALID,1.51918,
2006-02-07, 00:10:00,VALID,918.454,VALID,0,VALID,93.1946,VALID,0,VALID,20.2174,VALID,123,VALID,1.24423,
2006-02-07, 00:11:00,VALID,918.431,VALID,0,VALID,93.6104,VALID,0,VALID,20.1433,VALID,136,VALID,1.36719,
2006-02-07, 00:12:00,VALID,918.431,VALID,0,VALID,93.8559,VALID,-0.0169808,VALID,20.0846,VALID,117,VALID,1.27752,
2006-02-07, 00:13:00,VALID,918.406,VALID,0,VALID,94.0148,VALID,0.0509425,VALID,20.0294,VALID,119,VALID,1.23819,
2006-02-07, 00:14:00,VALID,918.392,VALID,0,VALID,94.3314,VALID,0,VALID,19.9911,VALID,134,VALID,1.45132,
2006-02-07, 00:15:00,VALID,918.372,VALID,0,VALID,94.465,VALID,0.0169808,VALID,19.9652,VALID,128,VALID,1.26376,
2006-02-07, 00:16:00,VALID,918.351,VALID,0,VALID,94.5972,VALID,0.0339617,VALID,19.9491,VALID,125,VALID,1.51963,
2006-02-07, 00:17:00,VALID,918.309,VALID,0,VALID,94.6303,VALID,0.0169808,VALID,19.9458,VALID,132,VALID,1.45499,
2006-02-07, 00:18:00,VALID,918.29,VALID,0,VALID,94.5705,VALID,0,VALID,19.9593,VALID,130,VALID,1.46931,
2006-02-07, 00:19:00,VALID,918.28,VALID,0,VALID,94.4662,VALID,0.0169808,VALID,19.9784,VALID,119,VALID,1.51927,
2006-02-07, 00:20:00,VALID,918.278,VALID,0,VALID,94.3314,VALID,0,VALID,19.9749,VALID,126,VALID,1.25418,
2006-02-07, 00:21:00,VALID,918.287,VALID,0,VALID,94.1916,VALID,0,VALID,20.008,VALID,125,VALID,1.26723,
2006-02-07, 00:22:00,VALID,918.274,VALID,0,VALID,93.9512,VALID,0,VALID,20.0341,VALID,124,VALID,1.62481,
2006-02-07, 00:23:00,VALID,918.284,VALID,0,VALID,93.7643,VALID,0.0169808,VALID,20.0654,VALID,121,VALID,2.27251,
2006-02-07, 00:24:00,VALID,918.271,VALID,0,VALID,93.4019,VALID,0.0339617,VALID,20.1567,VALID,123,VALID,2.25327,
2006-02-07, 00:25:00,VALID,918.255,VALID,0,VALID,93.0916,VALID,0,VALID,20.2119,VALID,119,VALID,2.16704,
2006-02-07, 00:26:00,VALID,918.242,VALID,0,VALID,92.9632,VALID,0.0169808,VALID,20.2435,VALID,121,VALID,2.09451,
2006-02-07, 00:27:00,VALID,918.223,VALID,0,VALID,92.817,VALID,0.0339617,VALID,20.2666,VALID,115,VALID,1.61814,
2006-02-07, 00:28:00,VALID,918.223,VALID,0,VALID,92.7534,VALID,0.0339617,VALID,20.2761,VALID,102,VALID,1.37264,
2006-02-07, 00:29:00,VALID,918.241,VALID,0,VALID,92.6021,VALID,0,VALID,20.2795,VALID,92,VALID,1.43963,
2006-02-07, 00:30:00,VALID,918.255,VALID,0,VALID,92.7801,VALID,-0.0679233,VALID,20.2472,VALID,97,VALID,1.44874,
2006-02-07, 00:31:00,VALID,918.291,VALID,0,VALID,93.0789,VALID,-0.0169808,VALID,20.1992,VALID,93,VALID,1.55583,
2006-02-07, 00:32:00,VALID,918.301,VALID,0,VALID,93.3396,VALID,0.0339617,VALID,20.1371,VALID,103,VALID,1.40811,
2006-02-07, 00:33:00,VALID,918.332,VALID,0,VALID,93.496,VALID,-0.0339617,VALID,20.105,VALID,112,VALID,1.70174,
2006-02-07, 00:34:00,VALID,918.352,VALID,0,VALID,93.5469,VALID,0.0169808,VALID,20.0853,VALID,115,VALID,1.7809,
2006-02-07, 00:35:00,VALID,918.377,VALID,0,VALID,93.4413,VALID,0,VALID,20.1052,VALID,101,VALID,1.61228,
2006-02-07, 00:36:00,VALID,918.389,VALID,0,VALID,93.3332,VALID,0,VALID,20.1236,VALID,95,VALID,1.58213,
2006-02-07, 00:37:00,VALID,918.402,VALID,0,VALID,93.3905,VALID,0.101885,VALID,20.1161,VALID,107,VALID,1.4968,
2006-02-07, 00:38:00,VALID,918.402,VALID,0,VALID,93.4782,VALID,0.101885,VALID,20.1099,VALID,108,VALID,1.62571,
2006-02-07, 00:39:00,VALID,918.409,VALID,0,VALID,93.5138,VALID,0.101885,VALID,20.1032,VALID,115,VALID,1.56979,
2006-02-07, 00:40:00,VALID,918.404,VALID,0,VALID,93.4617,VALID,0.118866,VALID,20.1199,VALID,110,VALID,1.51315,
2006-02-07, 00:41:00,VALID,918.406,VALID,0,VALID,93.4032,VALID,0.118866,VALID,20.1326,VALID,110,VALID,1.34928,
2006-02-07, 00:42:00,VALID,918.403,VALID,0,VALID,93.3269,VALID,0.118866,VALID,20.1547,VALID,118,VALID,1.67715,
2006-02-07, 00:43:00,VALID,918.396,VALID,0,VALID,93.1959,VALID,0.118866,VALID,20.1773,VALID,125,VALID,1.78499,
2006-02-07, 00:44:00,VALID,918.396,VALID,0,VALID,93.07,VALID,0.0679233,VALID,20.2198,VALID,125,VALID,1.54421,
2006-02-07, 00:45:00,VALID,918.414,VALID,0,VALID,92.7877,VALID,0.0679233,VALID,20.2586,VALID,128,VALID,1.73475,
2006-02-07, 00:46:00,VALID,918.407,VALID,0,VALID,92.3961,VALID,0.118866,VALID,20.3359,VALID,120,VALID,1.46726,
2006-02-07, 00:47:00,VALID,918.407,VALID,0,VALID,91.9663,VALID,0.101885,VALID,20.4232,VALID,126,VALID,1.55227,
2006-02-07, 00:48:00,VALID,918.406,VALID,0,VALID,91.6217,VALID,0.0849042,VALID,20.4973,VALID,124,VALID,1.27995,
2006-02-07, 00:49:00,VALID,918.398,VALID,0,VALID,91.3254,VALID,0.0849042,VALID,20.553,VALID,121,VALID,1.50309,
2006-02-07, 00:50:00,VALID,918.396,VALID,0,VALID,91.1473,VALID,0.101885,VALID,20.608,VALID,129,VALID,1.15376,
2006-02-07, 00:51:00,VALID,918.38,VALID,0,VALID,90.9719,VALID,0.0849042,VALID,20.6341,VALID,124,VALID,1.5483,
2006-02-07, 00:52:00,VALID,918.374,VALID,0,VALID,90.8383,VALID,-0.0169808,VALID,20.6376,VALID,118,VALID,1.41424,
2006-02-07, 00:53:00,VALID,918.371,VALID,0,VALID,90.7608,VALID,-0.0169808,VALID,20.661,VALID,117,VALID,1.63002,
2006-02-07, 00:54:00,VALID,918.371,VALID,0,VALID,90.7493,VALID,0,VALID,20.6675,VALID,122,VALID,1.44588,
2006-02-07, 00:55:00,VALID,918.366,VALID,0,VALID,90.8091,VALID,-0.0339617,VALID,20.6578,VALID,131,VALID,1.37188,
2006-02-07, 00:56:00,VALID,918.347,VALID,0,VALID,90.865,VALID,0,VALID,20.6284,VALID,123,VALID,1.51143,
2006-02-07, 00:57:00,VALID,918.339,VALID,0,VALID,90.8778,VALID,-0.0169808,VALID,20.6222,VALID,118,VALID,1.51543,
2006-02-07, 00:58:00,VALID,918.326,VALID,0,VALID,90.9235,VALID,-0.0169808,VALID,20.6093,VALID,119,VALID,1.41185,
2006-02-07, 00:59:00,VALID,918.313,VALID,0,VALID,91.0011,VALID,-0.0169808,VALID,20.5861,VALID,124,VALID,1.4801,
2006-02-07, 01:00:00,VALID,918.288,VALID,0,VALID,90.9973,VALID,-0.0339617,VALID,20.5839,VALID,129,VALID,1.56399,
2006-02-07, 01:01:00,VALID,918.265,VALID,0,VALID,90.9617,VALID,0,VALID,20.5867,VALID,124,VALID,0.92016,
2006-02-07, 01:02:00,VALID,918.244,VALID,0,VALID,91.0215,VALID,-0.0169808,VALID,20.577,VALID,122,VALID,1.24183,
2006-02-07, 01:03:00,VALID,918.216,VALID,0,VALID,91.1372,VALID,-0.0339617,VALID,20.5344,VALID,108,VALID,1.15359,
2006-02-07, 01:04:00,VALID,918.189,VALID,0,VALID,91.2681,VALID,-0.0849042,VALID,20.5126,VALID,105,VALID,1.08899,
2006-02-07, 01:05:00,VALID,918.16,VALID,0,VALID,91.3864,VALID,-0.0169808,VALID,20.4837,VALID,126,VALID,0.89226,
2006-02-07, 01:06:00,VALID,918.133,VALID,0,VALID,91.3928,VALID,0,VALID,20.4638,VALID,125,VALID,0.404948,
2006-02-07, 01:07:00,VALID,918.119,VALID,0,VALID,91.4258,VALID,0.0169808,VALID,20.4431,VALID,124,VALID,0.446584,
2006-02-07, 01:08:00,VALID,918.098,VALID,0,VALID,91.5301,VALID,0.0509425,VALID,20.3879,VALID,123,VALID,0.319602,
2006-02-07, 01:09:00,VALID,918.092,VALID,0,VALID,91.7183,VALID,0.0509425,VALID,20.326,VALID,123,VALID,0.340199,
2006-02-07, 01:10:00,VALID,918.108,VALID,0,VALID,91.9637,VALID,0.0679233,VALID,20.2815,VALID,121,VALID,0.553472,
2006-02-07, 01:11:00,VALID,918.126,VALID,0,VALID,92.246,VALID,0.0679233,VALID,20.2101,VALID,111,VALID,0.616071,
2006-02-07, 01:12:00,VALID,918.122,VALID,0,VALID,92.4774,VALID,0.0509425,VALID,20.1517,VALID,88,VALID,0.584847,
2006-02-07, 01:13:00,VALID,918.135,VALID,0,VALID,92.7012,VALID,0.0339617,VALID,20.1005,VALID,69,VALID,0.548177,
2006-02-07, 01:14:00,VALID,918.139,VALID,0,VALID,93.0573,VALID,0.0339617,VALID,20.049,VALID,69,VALID,0.49668,
2006-02-07, 01:15:00,VALID,918.138,VALID,0,VALID,93.2099,VALID,0.0339617,VALID,20.0204,VALID,71,VALID,0.544969,
2006-02-07, 01:16:00,VALID,918.133,VALID,0,VALID,93.4451,VALID,0.0339617,VALID,19.9744,VALID,75,VALID,0.700893,
2006-02-07, 01:17:00,VALID,918.133,VALID,0,VALID,93.6956,VALID,0.0339617,VALID,19.9058,VALID,103,VALID,1.07129,
2006-02-07, 01:18:00,VALID,918.115,VALID,0,VALID,93.9474,VALID,0.0169808,VALID,19.8839,VALID,104,VALID,0.957031,
2006-02-07, 01:19:00,VALID,918.099,VALID,0,VALID,94.1229,VALID,0.0339617,VALID,19.8424,VALID,95,VALID,0.962326,
2006-02-07, 01:20:00,VALID,918.086,VALID,0,VALID,94.2501,VALID,0.0849042,VALID,19.8096,VALID,93,VALID,0.542014,
2006-02-07, 01:21:00,VALID,918.065,VALID,0,VALID,94.3874,VALID,0.0679233,VALID,19.7611,VALID,93,VALID,0.944741,
2006-02-07, 01:22:00,VALID,918.054,VALID,0,VALID,94.6226,VALID,-0.0509425,VALID,19.7303,VALID,111,VALID,0.934126,
2006-02-07, 01:23:00,VALID,918.054,VALID,0,VALID,94.8019,VALID,-0.0679233,VALID,19.6912,VALID,111,VALID,0.819741,
2006-02-07, 01:24:00,VALID,918.048,VALID,0,VALID,94.9609,VALID,-0.101885,VALID,19.6816,VALID,110,VALID,0.836682,
2006-02-07, 01:25:00,VALID,918.041,VALID,0,VALID,95.1084,VALID,-0.0339617,VALID,19.6622,VALID,104,VALID,1.03437,
2006-02-07, 01:26:00,VALID,918.032,VALID,0,VALID,95.2292,VALID,-0.0169808,VALID,19.6393,VALID,110,VALID,1.2033,
2006-02-07, 01:27:00,VALID,918.024,VALID,0,VALID,95.2762,VALID,-0.0169808,VALID,19.6328,VALID,105,VALID,0.922917,
2006-02-07, 01:28:00,VALID,918.002,VALID,0,VALID,95.2775,VALID,-0.0339617,VALID,19.6326,VALID,106,VALID,0.910342,
2006-02-07, 01:29:00,VALID,917.977,VALID,0,VALID,95.3246,VALID,-0.0339617,VALID,19.6393,VALID,127,VALID,1.20156,
2006-02-07, 01:30:00,VALID,917.954,VALID,0,VALID,95.3297,VALID,-0.0509425,VALID,19.6398,VALID,125,VALID,1.21325,
2006-02-07, 01:31:00,VALID,917.932,VALID,0,VALID,95.2788,VALID,-0.0169808,VALID,19.6492,VALID,122,VALID,1.20749,
2006-02-07, 01:32:00,VALID,917.912,VALID,0,VALID,95.2267,VALID,-0.0169808,VALID,19.6594,VALID,123,VALID,1.2567,
2006-02-07, 01:33:00,VALID,917.894,VALID,0,VALID,95.144,VALID,-0.0169808,VALID,19.6622,VALID,119,VALID,1.61044,
2006-02-07, 01:34:00,VALID,917.874,VALID,0,VALID,95.0588,VALID,-0.0339617,VALID,19.6684,VALID,114,VALID,1.6715,
2006-02-07, 01:35:00,VALID,917.862,VALID,0,VALID,94.9927,VALID,-0.0169808,VALID,19.6816,VALID,119,VALID,1.74647,
2006-02-07, 01:36:00,VALID,917.84,VALID,0,VALID,94.9189,VALID,0,VALID,19.6684,VALID,131,VALID,1.69713,
2006-02-07, 01:37:00,VALID,917.839,VALID,0,VALID,94.8108,VALID,0.0849042,VALID,19.6932,VALID,135,VALID,1.36381,
2006-02-07, 01:38:00,VALID,917.837,VALID,0,VALID,94.7358,VALID,0.0509425,VALID,19.7002,VALID,145,VALID,1.23118,
2006-02-07, 01:39:00,VALID,917.819,VALID,0,VALID,94.69,VALID,0.0679233,VALID,19.6962,VALID,151,VALID,0.926883,
2006-02-07, 01:40:00,VALID,917.807,VALID,0,VALID,94.6519,VALID,0.0849042,VALID,19.7129,VALID,136,VALID,1.3639,
2006-02-07, 01:41:00,VALID,917.786,VALID,0,VALID,94.615,VALID,0.0169808,VALID,19.7096,VALID,138,VALID,1.629,
2006-02-07, 01:42:00,VALID,917.746,VALID,0,VALID,94.6163,VALID,0.0339617,VALID,19.7096,VALID,130,VALID,1.24259,
2006-02-07, 01:43:00,VALID,917.729,VALID,0,VALID,94.5273,VALID,0.0339617,VALID,19.7064,VALID,125,VALID,1.63244,
2006-02-07, 01:44:00,VALID,917.706,VALID,0,VALID,94.4408,VALID,0.0169808,VALID,19.6967,VALID,133,VALID,1.64317,
2006-02-07, 01:45:00,VALID,917.683,VALID,0,VALID,94.2946,VALID,0.0339617,VALID,19.7064,VALID,120,VALID,1.65439,
2006-02-07, 01:46:00,VALID,917.669,VALID,0,VALID,94.2056,VALID,0.0509425,VALID,19.7328,VALID,113,VALID,1.3512,
2006-02-07, 01:47:00,VALID,917.639,VALID,0,VALID,94.0949,VALID,0.0509425,VALID,19.7382,VALID,114,VALID,1.84993,
2006-02-07, 01:48:00,VALID,917.602,VALID,0,VALID,93.9207,VALID,0.0679233,VALID,19.7676,VALID,120,VALID,1.50488,
2006-02-07, 01:49:00,VALID,917.588,VALID,0,VALID,93.8431,VALID,0.0849042,VALID,19.7678,VALID,114,VALID,1.26067,
2006-02-07, 01:50:00,VALID,917.563,VALID,0,VALID,93.894,VALID,0.0849042,VALID,19.7614,VALID,112,VALID,1.56777,
2006-02-07, 01:51:00,VALID,917.552,VALID,0,VALID,93.9093,VALID,0.0169808,VALID,19.7452,VALID,110,VALID,1.56126,
2006-02-07, 01:52:00,VALID,917.53,VALID,0,VALID,93.8953,VALID,0.0169808,VALID,19.7489,VALID,118,VALID,1.64644,
2006-02-07, 01:53:00,VALID,917.504,VALID,0,VALID,93.7376,VALID,0.0509425,VALID,19.7549,VALID,119,VALID,1.61602,
2006-02-07, 01:54:00,VALID,917.51,VALID,0,VALID,93.5914,VALID,0.0339617,VALID,19.7808,VALID,118,VALID,1.80153,
2006-02-07, 01:55:00,VALID,917.506,VALID,0,VALID,93.4973,VALID,0.0339617,VALID,19.8071,VALID,123,VALID,1.58733,
2006-02-07, 01:56:00,VALID,917.497,VALID,0,VALID,93.4909,VALID,0.0509425,VALID,19.8133,VALID,113,VALID,1.72106,
2006-02-07, 01:57:00,VALID,917.491,VALID,0,VALID,93.5392,VALID,0.0339617,VALID,19.7964,VALID,115,VALID,1.32576,
2006-02-07, 01:58:00,VALID,917.48,VALID,0,VALID,93.6486,VALID,0.0169808,VALID,19.7706,VALID,114,VALID,1.72049,
2006-02-07, 01:59:00,VALID,917.459,VALID,0,VALID,93.6969,VALID,0.0169808,VALID,19.7711,VALID,120,VALID,1.5162,
2006-02-07, 02:00:00,VALID,917.439,VALID,0,VALID,93.763,VALID,0.0509425,VALID,19.7487,VALID,120,VALID,1.53869,
2006-02-07, 02:01:00,VALID,917.419,VALID,0,VALID,93.8711,VALID,0.0339617,VALID,19.7256,VALID,118,VALID,1.64774,
2006-02-07, 02:02:00,VALID,917.414,VALID,0,VALID,94.0466,VALID,0.0679233,VALID,19.7034,VALID,124,VALID,1.7207,
2006-02-07, 02:03:00,VALID,917.404,VALID,0,VALID,94.1534,VALID,0.0169808,VALID,19.6878,VALID,119,VALID,1.75343,
2006-02-07, 02:04:00,VALID,917.39,VALID,0,VALID,94.2005,VALID,0.0339617,VALID,19.6714,VALID,115,VALID,1.56362,
2006-02-07, 02:05:00,VALID,917.382,VALID,0,VALID,94.3276,VALID,0,VALID,19.6487,VALID,118,VALID,1.76182,
2006-02-07, 02:06:00,VALID,917.375,VALID,0,VALID,94.5031,VALID,0.0509425,VALID,19.6196,VALID,116,VALID,1.91815,
2006-02-07, 02:07:00,VALID,917.368,VALID,0,VALID,94.5565,VALID,0.0679233,VALID,19.6199,VALID,120,VALID,1.90204,
2006-02-07, 02:08:00,VALID,917.35,VALID,0,VALID,94.5463,VALID,0.0339617,VALID,19.6129,VALID,110,VALID,1.34965,
2006-02-07, 02:09:00,VALID,917.328,VALID,0,VALID,94.6608,VALID,0.0849042,VALID,19.603,VALID,112,VALID,1.72638,
2006-02-07, 02:10:00,VALID,917.319,VALID,0,VALID,94.7066,VALID,0.0679233,VALID,19.6035,VALID,116,VALID,1.67949,
2006-02-07, 02:11:00,VALID,917.3,VALID,0,VALID,94.7104,VALID,0.0679233,VALID,19.5866,VALID,109,VALID,1.56726,
2006-02-07, 02:12:00,VALID,917.274,VALID,0,VALID,94.7498,VALID,0.0679233,VALID,19.5707,VALID,100,VALID,1.27772,
2006-02-07, 02:13:00,VALID,917.251,VALID,0,VALID,95.0054,VALID,0.0679233,VALID,19.5515,VALID,107,VALID,1.63601,
2006-02-07, 02:14:00,VALID,917.23,VALID,0,VALID,94.9444,VALID,0.0849042,VALID,19.5682,VALID,108,VALID,1.60833,
2006-02-07, 02:15:00,VALID,917.214,VALID,0,VALID,95.0194,VALID,0.0679233,VALID,19.5647,VALID,114,VALID,1.68096,
2006-02-07, 02:16:00,VALID,917.209,VALID,0,VALID,95.041,VALID,0.0679233,VALID,19.5744,VALID,112,VALID,1.62576,
2006-02-07, 02:17:00,VALID,917.21,VALID,0,VALID,95.0194,VALID,0.0849042,VALID,19.6003,VALID,117,VALID,1.7718,
2006-02-07, 02:18:00,VALID,917.227,VALID,0,VALID,94.9393,VALID,0.0509425,VALID,19.6067,VALID,117,VALID,1.74328,
2006-02-07, 02:19:00,VALID,917.225,VALID,0,VALID,94.9405,VALID,0,VALID,19.6095,VALID,115,VALID,1.4708,
2006-02-07, 02:20:00,VALID,917.208,VALID,0,VALID,94.9774,VALID,0.101885,VALID,19.6003,VALID,105,VALID,1.25382,
2006-02-07, 02:21:00,VALID,917.197,VALID,0,VALID,95.0664,VALID,0.0169808,VALID,19.6,VALID,109,VALID,1.24561,
2006-02-07, 02:22:00,VALID,917.175,VALID,0,VALID,95.027,VALID,0.0679233,VALID,19.5868,VALID,109,VALID,1.1677,
2006-02-07, 02:23:00,VALID,917.176,VALID,0,VALID,95.1147,VALID,0.0679233,VALID,19.5841,VALID,127,VALID,1.72983,
2006-02-07, 02:24:00,VALID,917.178,VALID,0,VALID,95.0652,VALID,0.0679233,VALID,19.6065,VALID,124,VALID,1.5089,
2006-02-07, 02:25:00,VALID,917.179,VALID,0,VALID,95.0067,VALID,0.118866,VALID,19.6192,VALID,113,VALID,1.52292,
2006-02-07, 02:26:00,VALID,917.195,VALID,0,VALID,94.9227,VALID,0.0849042,VALID,19.6646,VALID,113,VALID,1.30578,
2006-02-07, 02:27:00,VALID,917.207,VALID,0,VALID,94.7765,VALID,0.0849042,VALID,19.7037,VALID,113,VALID,1.24237,
2006-02-07, 02:28:00,VALID,917.226,VALID,0,VALID,94.5807,VALID,0.0679233,VALID,19.7198,VALID,117,VALID,1.30394,
2006-02-07, 02:29:00,VALID,917.227,VALID,0,VALID,94.5654,VALID,0.0849042,VALID,19.7392,VALID,127,VALID,1.36483,
2006-02-07, 02:30:00,VALID,917.22,VALID,0,VALID,94.5413,VALID,0.0679233,VALID,19.7522,VALID,130,VALID,1.45461,
2006-02-07, 02:31:00,VALID,917.214,VALID,0,VALID,94.465,VALID,0.0509425,VALID,19.7614,VALID,130,VALID,1.37809,
2006-02-07, 02:32:00,VALID,917.213,VALID,0,VALID,94.3874,VALID,0.0679233,VALID,19.8009,VALID,113,VALID,1.44149,
2006-02-07, 02:33:00,VALID,917.193,VALID,0,VALID,94.3149,VALID,0.0509425,VALID,19.8168,VALID,121,VALID,1.67702,
2006-02-07, 02:34:00,VALID,917.179,VALID,0,VALID,94.1585,VALID,0.0849042,VALID,19.8327,VALID,129,VALID,1.47588,
2006-02-07, 02:35:00,VALID,917.196,VALID,0,VALID,94.1661,VALID,0.0679233,VALID,19.8531,VALID,131,VALID,1.53423,
2006-02-07, 02:36:00,VALID,917.179,VALID,0,VALID,94.0759,VALID,0.0679233,VALID,19.8688,VALID,134,VALID,1.97602,
2006-02-07, 02:37:00,VALID,917.177,VALID,0,VALID,93.7478,VALID,0.0679233,VALID,19.9202,VALID,127,VALID,1.80564,
2006-02-07, 02:38:00,VALID,917.167,VALID,0,VALID,93.5113,VALID,0.0849042,VALID,19.9655,VALID,132,VALID,1.21608,
2006-02-07, 02:39:00,VALID,917.16,VALID,0,VALID,93.4388,VALID,0.0169808,VALID,19.9948,VALID,132,VALID,1.25142,
2006-02-07, 02:40:00,VALID,917.154,VALID,0,VALID,93.3078,VALID,0.0339617,VALID,20.018,VALID,139,VALID,1.00705,
2006-02-07, 02:41:00,VALID,917.139,VALID,0,VALID,93.3981,VALID,0.0849042,VALID,20.0107,VALID,133,VALID,1.55149,
2006-02-07, 02:42:00,VALID,917.151,VALID,0,VALID,93.173,VALID,0.0509425,VALID,20.0471,VALID,128,VALID,1.30105,
2006-02-07, 02:43:00,VALID,917.143,VALID,0,VALID,93.1349,VALID,0.0169808,VALID,20.0498,VALID,115,VALID,1.18236,
2006-02-07, 02:44:00,VALID,917.134,VALID,0,VALID,93.1552,VALID,0.0679233,VALID,20.0562,VALID,112,VALID,1.05523,
2006-02-07, 02:45:00,VALID,917.123,VALID,0,VALID,93.1387,VALID,0.0849042,VALID,20.0433,VALID,110,VALID,1.07885,
2006-02-07, 02:46:00,VALID,917.121,VALID,0,VALID,93.1781,VALID,0.0849042,VALID,20.0199,VALID,117,VALID,0.987038,
2006-02-07, 02:47:00,VALID,917.103,VALID,0,VALID,93.3625,VALID,0.101885,VALID,19.9747,VALID,132,VALID,0.862827,
2006-02-07, 02:48:00,VALID,917.096,VALID,0,VALID,93.5329,VALID,0.0679233,VALID,19.9399,VALID,127,VALID,0.681593,
2006-02-07, 02:49:00,VALID,917.089,VALID,0,VALID,93.6511,VALID,0.0509425,VALID,19.8909,VALID,124,VALID,0.414063,
2006-02-07, 02:50:00,VALID,917.081,VALID,0,VALID,94.0428,VALID,0.0849042,VALID,19.8454,VALID,132,VALID,0.671317,
2006-02-07, 02:51:00,VALID,917.071,VALID,0,VALID,94.1343,VALID,0.0679233,VALID,19.8429,VALID,132,VALID,0.716751,
2006-02-07, 02:52:00,VALID,917.083,VALID,0,VALID,93.9055,VALID,0.0339617,VALID,19.8166,VALID,146,VALID,0.395833,
2006-02-07, 02:53:00,VALID,917.081,VALID,0,VALID,93.9703,VALID,0.0849042,VALID,19.7708,VALID,136,VALID,0.613917,
2006-02-07, 02:54:00,VALID,917.084,VALID,0,VALID,94.0898,VALID,0.101885,VALID,19.7457,VALID,141,VALID,0.527344,
2006-02-07, 02:55:00,VALID,917.086,VALID,0,VALID,94.1941,VALID,0.0849042,VALID,19.7134,VALID,145,VALID,0.571039,
2006-02-07, 02:56:00,VALID,917.087,VALID,0,VALID,94.4052,VALID,0.0679233,VALID,19.6746,VALID,154,VALID,0.729725,
2006-02-07, 02:57:00,VALID,917.077,VALID,0,VALID,94.7447,VALID,0.0679233,VALID,19.6622,VALID,152,VALID,0.926054,
2006-02-07, 02:58:00,VALID,917.045,VALID,0,VALID,94.8261,VALID,0.0679233,VALID,19.6557,VALID,134,VALID,0.542597,
2006-02-07, 02:59:00,VALID,917.03,VALID,0,VALID,94.821,VALID,0.0339617,VALID,19.6259,VALID,122,VALID,0.243459,
2006-02-07, 03:00:00,VALID,917.014,VALID,0,VALID,94.7002,VALID,0.0509425,VALID,19.5903,VALID,122,VALID,0.125888,
2006-02-07, 03:01:00,VALID,916.987,VALID,0,VALID,94.8388,VALID,0.0849042,VALID,19.5587,VALID,122,VALID,0.60191,
2006-02-07, 03:02:00,VALID,916.98,VALID,0,VALID,95.205,VALID,0.0679233,VALID,19.5227,VALID,125,VALID,0.816692,
2006-02-07, 03:03:00,VALID,916.975,VALID,0,VALID,95.4797,VALID,0.0849042,VALID,19.4839,VALID,139,VALID,1.01012,
2006-02-07, 03:04:00,VALID,916.964,VALID,0,VALID,95.5344,VALID,0.0849042,VALID,19.4645,VALID,137,VALID,0.845749,
2006-02-07, 03:05:00,VALID,916.957,VALID,0,VALID,95.7429,VALID,0.0679233,VALID,19.432,VALID,132,VALID,1.25521,
2006-02-07, 03:06:00,VALID,916.96,VALID,0,VALID,95.8828,VALID,0.0679233,VALID,19.4098,VALID,131,VALID,1.14577,
2006-02-07, 03:07:00,VALID,916.969,VALID,0,VALID,96.0748,VALID,0.0169808,VALID,19.3937,VALID,134,VALID,0.988281,
2006-02-07, 03:08:00,VALID,916.987,VALID,0,VALID,96.0646,VALID,0.0679233,VALID,19.3904,VALID,138,VALID,0.900484,
2006-02-07, 03:09:00,VALID,916.994,VALID,0,VALID,96.0685,VALID,0.0509425,VALID,19.3974,VALID,128,VALID,0.94112,
2006-02-07, 03:10:00,VALID,916.997,VALID,0,VALID,96.0913,VALID,0.0509425,VALID,19.3939,VALID,127,VALID,0.951308,
2006-02-07, 03:11:00,VALID,916.99,VALID,0,VALID,96.1753,VALID,0.0509425,VALID,19.3745,VALID,124,VALID,0.960392,
2006-02-07, 03:12:00,VALID,916.987,VALID,0,VALID,96.4207,VALID,0.0339617,VALID,19.3872,VALID,116,VALID,1.28672,
2006-02-07, 03:13:00,VALID,916.958,VALID,0,VALID,96.3736,VALID,0.0509425,VALID,19.4198,VALID,104,VALID,1.27437,
2006-02-07, 03:14:00,VALID,916.945,VALID,0,VALID,96.2172,VALID,0.0679233,VALID,19.4419,VALID,113,VALID,1.26823,
2006-02-07, 03:15:00,VALID,916.951,VALID,0,VALID,96.1269,VALID,0.0679233,VALID,19.4581,VALID,127,VALID,0.997523,
2006-02-07, 03:16:00,VALID,916.957,VALID,0,VALID,95.9146,VALID,0.0509425,VALID,19.4645,VALID,131,VALID,0.850074,
2006-02-07, 03:17:00,VALID,916.974,VALID,0,VALID,95.9159,VALID,0.0849042,VALID,19.4449,VALID,130,VALID,0.926417,
2006-02-07, 03:18:00,VALID,916.992,VALID,0,VALID,95.8968,VALID,0.0849042,VALID,19.4257,VALID,125,VALID,0.666493,
2006-02-07, 03:19:00,VALID,917.001,VALID,0,VALID,95.9871,VALID,0.0849042,VALID,19.3969,VALID,125,VALID,0.544331,
2006-02-07, 03:20:00,VALID,916.998,VALID,0,VALID,96.2567,VALID,0.0509425,VALID,19.3616,VALID,136,VALID,0.841619,
2006-02-07, 03:21:00,VALID,916.987,VALID,0,VALID,96.3431,VALID,0.0509425,VALID,19.339,VALID,152,VALID,0.832403,
2006-02-07, 03:22:00,VALID,916.969,VALID,0,VALID,96.4347,VALID,0.0509425,VALID,19.2903,VALID,142,VALID,0.553757,
2006-02-07, 03:23:00,VALID,916.942,VALID,0,VALID,96.4309,VALID,0.0509425,VALID,19.2388,VALID,127,VALID,0.750178,
2006-02-07, 03:24:00,VALID,916.905,VALID,0,VALID,96.6343,VALID,0.0679233,VALID,19.1739,VALID,118,VALID,0.781068,
2006-02-07, 03:25:00,VALID,916.891,VALID,0,VALID,96.9789,VALID,0.0849042,VALID,19.0993,VALID,116,VALID,0.878815,
2006-02-07, 03:26:00,VALID,916.877,VALID,0,VALID,97.424,VALID,0.0509425,VALID,19.0454,VALID,126,VALID,0.962536,
2006-02-07, 03:27:00,VALID,916.862,VALID,0,VALID,97.6046,VALID,0.0679233,VALID,18.98,VALID,122,VALID,0.822798,
2006-02-07, 03:28:00,VALID,916.862,VALID,0,VALID,97.8436,VALID,0.0849042,VALID,18.9156,VALID,120,VALID,0.759487,
2006-02-07, 03:29:00,VALID,916.871,VALID,0,VALID,98.0407,VALID,0.0679233,VALID,18.8736,VALID,115,VALID,0.753606,
2006-02-07, 03:30:00,VALID,916.867,VALID,0,VALID,98.3688,VALID,0.0679233,VALID,18.8411,VALID,136,VALID,0.978165,
2006-02-07, 03:31:00,VALID,916.873,VALID,0,VALID,98.4781,VALID,0.0679233,VALID,18.7963,VALID,148,VALID,0.908296,
2006-02-07, 03:32:00,VALID,916.89,VALID,0,VALID,98.8227,VALID,0.0339617,VALID,18.7739,VALID,144,VALID,1.23952,
2006-02-07, 03:33:00,VALID,916.888,VALID,0,VALID,99.2055,VALID,0.0509425,VALID,18.7931,VALID,142,VALID,1.2822,